| time (UTC) | temp F | wind direction | speed knots | gust knots | rain 1hr in | rain 24hr in | rain mn in | humidity % | barometer mb |
| 20260504081529 | 58 | 154 | 4.3 | 7.0 | 0.00 | 0.00 | 0.00 | 56 | 1010.3 |
| 20260504044530 | 59 | 161 | 6.1 | 8.7 | 0.00 | 0.00 | 0.00 | 50 | 1011.6 |
| 20260504043032 | 60 | 168 | 5.2 | 11.3 | 0.00 | 0.00 | 0.00 | 49 | 1011.7 |
| 20260504041534 | 60 | 164 | 7.0 | 13.0 | 0.00 | 0.00 | 0.00 | 47 | 1011.9 |
| 20260504040031 | 60 | 117 | 7.0 | 12.2 | 0.00 | 0.00 | 0.00 | 48 | 1012.0 |
| 20260504034530 | 60 | 173 | 7.8 | 11.3 | 0.00 | 0.00 | 0.00 | 47 | 1012.1 |
| 20260504033028 | 60 | 124 | 5.2 | 7.8 | 0.00 | 0.00 | 0.00 | 47 | 1012.5 |
| 20260504031535 | 61 | 110 | 3.5 | 5.2 | 0.00 | 0.00 | 0.00 | 59 | 1012.5 |
| 20260504030030 | 61 | 123 | 2.6 | 6.1 | 0.00 | 0.00 | 0.00 | 45 | 1012.7 |
| 20260504024529 | 61 | 133 | 1.7 | 5.2 | 0.00 | 0.00 | 0.00 | 45 | 1012.5 |
| 20260504023031 | 62 | 124 | 2.6 | 5.2 | 0.00 | 0.00 | 0.00 | 45 | 1012.7 |
| 20260504021530 | 62 | 152 | 2.6 | 5.2 | 0.00 | 0.00 | 0.00 | 45 | 1012.7 |
| 20260504020028 | 62 | 137 | 5.2 | 9.6 | 0.00 | 0.00 | 0.00 | 44 | 1012.5 |
| 20260504014534 | 61 | 119 | 4.3 | 7.0 | 0.00 | 0.00 | 0.00 | 57 | 1012.6 |
| 20260504013039 | 61 | 172 | 0.9 | 2.6 | 0.00 | 0.00 | 0.00 | 49 | 1012.8 |
| 20260504011534 | 62 | 201 | 0.9 | 6.1 | 0.00 | 0.00 | 0.00 | 46 | 1012.7 |
| 20260504010030 | 62 | 158 | 2.6 | 4.3 | 0.00 | 0.00 | 0.00 | 45 | 1012.7 |
| 20260504004529 | 63 | 125 | 3.5 | 7.8 | 0.00 | 0.00 | 0.00 | 42 | 1012.5 |
| 20260504003033 | 65 | 158 | 6.1 | 10.4 | 0.00 | 0.00 | 0.00 | 39 | 1012.5 |
| 20260504001537 | 66 | 159 | 7.0 | 13.0 | 0.00 | 0.00 | 0.00 | 37 | 1012.4 |
| 20260504000032 | 67 | 152 | 9.6 | 15.6 | 0.00 | 0.00 | 0.00 | 35 | 1012.3 |
| 20260503234539 | 67 | 163 | 10.4 | 23.5 | 0.00 | 0.00 | 0.00 | 46 | 1012.2 |
| 20260503233036 | 67 | 104 | 11.3 | 22.6 | 0.00 | 0.00 | 0.00 | 34 | 1012.3 |
| 20260503231534 | 67 | 171 | 12.2 | 24.3 | 0.00 | 0.00 | 0.00 | 33 | 1012.3 |
| 20260503230030 | 68 | 191 | 13.0 | 24.3 | 0.00 | 0.00 | 0.00 | 44 | 1012.7 |
| 20260503224529 | 68 | 164 | 13.9 | 22.6 | 0.00 | 0.00 | 0.00 | 44 | 1012.9 |
| 20260503223029 | 67 | 131 | 14.8 | 21.7 | 0.00 | 0.00 | 0.00 | 44 | 1013.0 |
| 20260503221535 | 68 | 159 | 14.8 | 21.7 | 0.00 | 0.00 | 0.00 | 32 | 1013.4 |
| 20260503220030 | 68 | 154 | 12.2 | 19.1 | 0.00 | 0.00 | 0.00 | 34 | 1013.6 |
| 20260503214531 | 67 | 190 | 10.4 | 23.5 | 0.00 | 0.00 | 0.00 | 34 | 1013.8 |
| 20260503213033 | 67 | 179 | 12.2 | 24.3 | 0.00 | 0.00 | 0.00 | 33 | 1014.1 |
| 20260503211529 | 67 | 168 | 14.8 | 24.3 | 0.00 | 0.00 | 0.00 | 44 | 1014.3 |
| 20260503210030 | 67 | 113 | 13.0 | 21.7 | 0.00 | 0.00 | 0.00 | 46 | 1014.9 |
| 20260503204532 | 67 | 124 | 12.2 | 20.0 | 0.00 | 0.00 | 0.00 | 45 | 1015.1 |
| 20260503203033 | 67 | 158 | 11.3 | 20.9 | 0.00 | 0.00 | 0.00 | 46 | 1015.4 |
| 20260503201532 | 66 | 150 | 11.3 | 18.2 | 0.00 | 0.00 | 0.00 | 47 | 1015.7 |
| 20260503200031 | 65 | 111 | 8.7 | 24.3 | 0.00 | 0.00 | 0.00 | 47 | 1016.2 |
| 20260503194528 | 65 | 152 | 12.2 | 22.6 | 0.00 | 0.00 | 0.00 | 47 | 1016.6 |
| 20260503193028 | 65 | 119 | 11.3 | 22.6 | 0.00 | 0.00 | 0.00 | 36 | 1016.8 |
| 20260503191534 | 65 | 185 | 10.4 | 19.1 | 0.00 | 0.00 | 0.00 | 37 | 1017.2 |
| 20260503190030 | 65 | 171 | 12.2 | 20.9 | 0.00 | 0.00 | 0.00 | 51 | 1017.3 |
| 20260503184531 | 64 | 189 | 10.4 | 20.0 | 0.00 | 0.00 | 0.00 | 37 | 1017.9 |
| 20260503183031 | 63 | 187 | 12.2 | 18.2 | 0.00 | 0.00 | 0.00 | 51 | 1018.1 |
| 20260503181532 | 63 | 184 | 12.2 | 20.0 | 0.00 | 0.00 | 0.00 | 50 | 1018.5 |
| 20260503180032 | 63 | 157 | 9.6 | 19.1 | 0.00 | 0.00 | 0.00 | 42 | 1018.7 |
| 20260503174529 | 62 | 178 | 8.7 | 17.4 | 0.00 | 0.00 | 0.00 | 55 | 1019.1 |
| 20260503173030 | 62 | 162 | 8.7 | 17.4 | 0.00 | 0.00 | 0.00 | 57 | 1019.3 |
| 20260503171530 | 62 | 112 | 7.8 | 19.1 | 0.00 | 0.00 | 0.00 | 57 | 1019.5 |